Regional Weather Roundup
Issued by NWS

Home | Current Version | Previous Version | Graphics & Text | Print | Product List | Glossary On
Versions: 1 2 3 4 5 6 7 8 9 10 11 12 13 14 15 16 17 18 19 20 21 22 23 24 25 26 27 28 29 30 31 32 33 34 35 36 37 38 39 40 41 42 43 44 45 46 47 48 49 50
000
ASUS44 KMEG 220400
RWRTN
TENNESSEE HOURLY STATE WEATHER ROUNDUP
NATIONAL WEATHER SERVICE MEMPHIS TN
1100 PM CDT SUN SEP 21 2014

TNZ002-004-019-021-049-052-054-088>092-220500-
WEST TENNESSEE

CITY           SKY/WX    TMP DP  RH WIND       PRES   REMARKS
MEMPHIS INTL   PTCLDY    72  51  47 NE6       30.08R
NWS MEMPHIS      N/A     69 N/A N/A MISG        N/A
JACKSON        CLEAR     63  52  67 CALM      30.07R
DYERSBURG      CLEAR     66  46  48 N9        30.11R
UNION CITY     CLEAR     59  54  82 N6        30.09R
PARIS          CLEAR     59  48  67 N5        30.09S
LEXINGTON      CLEAR     63  52  67 NE3       30.06R
SAVANNAH       MOCLDY    70  54  56 NE3       30.07R
$$

TNZ008-025-027-028-033-062-065-066-220500-
NORTH MIDDLE TENNESSEE

CITY           SKY/WX    TMP DP  RH WIND       PRES   REMARKS
NASHVILLE      CLEAR     68  50  52 N7        30.06R
CLARKSVILLE    CLEAR     62  50  64 N13       30.07R
COOKEVILLE     CLEAR     54  52  94 CALM      30.04S
CROSSVILLE     CLEAR     62  49  62 N5        30.06S
$$

TNZ061-075-076-078-094-096-097-220500-
SOUTH MIDDLE TENNESSEE

CITY           SKY/WX    TMP DP  RH WIND       PRES   REMARKS
FAYETTEVILLE   CLEAR     68  52  56 N10       30.05R
TULLAHOMA        N/A     64  48  55 N5        30.07R
WINCHESTER     CLOUDY    66  55  68 CALM      30.05S
SHELBYVILLE    PTCLDY    68  54  60 CALM      30.06R
$$

TNZ017-018-042-046-047-220500-
NORTHEAST TENNESSEE

CITY           SKY/WX    TMP DP  RH WIND       PRES   REMARKS
TRI CITIES     PTCLDY    64  52  64 NW5       30.02R
ELIZABETHTON   CLEAR     63  55  77 NW5       30.02R
$$

TNZ012-013-036-069-073-074-220500-
CENTRAL EAST TENNESSEE

CITY           SKY/WX    TMP DP  RH WIND       PRES   REMARKS
KNOXVILLE      PTCLDY    68  51  54 N13       30.00R
OAK RIDGE      CLEAR     66  51  58 CALM      30.03R
GATLINBURG     PTCLDY    68  55  64 NW6       30.01R
$$

TNZ083-085-099-220500-
SOUTHEAST TENNESSEE

CITY           SKY/WX    TMP DP  RH WIND       PRES   REMARKS
CHATTANOOGA    MOCLDY    74  55  51 N16       30.01R
$$

SKY/WX REPORTED AS FAIR MEANS FEW OR NO CLOUDS BELOW
12 THOUSAND FEET.



USA.gov is the U.S. government's official web portal to all federal, state and local government web resources and services.